Location: Burla
(50.9568°N, 10.4983°E)
Time: 09:31:08
(UTC+00:00)

Cosmos 1743 Rocket - Pass Details

Date: 18 January 2026
Orbit: 597 x 626 km, 82.6° (Epoch: 16 February)

Event Time Altitude Azimuth Distance (km) Brightness Sun altitude
Rises 04:47:37 0° 184° (S) 2,897 7.0 -22.1°
Reaches altitude 10° 04:49:50 10° 183° (S) 1,993 6.2 -21.8°
Maximum altitude 04:54:15 78° 98° (E) 643 3.6 -21.1°
Drops below altitude 10° 04:58:41 10° 13° (NNE) 1,996 6.2 -20.4°
Sets 05:00:55 0° 12° (NNE) 2,902 7.1 -20.1°
